DELTA 1 DEB, 10752

Orbit data source: Space-Track

DELTA 1 DEB, 10752 is space debris in SSO originally from a launch on Thu, 29 Jul 1976 UTC launched from the Air Force Western Test Range (AFWTR). Debris objects in space refer to the collection of defunct objects orbiting the Earth. Examples of debris include non-operational satellites, rocket bodies, and fragments generated from explosions, collisions, or faulty payload assembly.

Loading next visibility...
Identifier
10752, 1976-077AZ
Orbit
SSO
Country
Flag of USUS
Related business
Manufacturer
Unknown
Mission
Spacecraft
Bus & Motor
Unknown
Mass
Unknown
Launch date (UTC)
1976-07-29 (50 years ago)
Launch vehicle
Unknown
Launch site
Air Force Western Test Range (AFWTR)
Object type
Payload
Rocket body
Debris
Shape & HBR
Unknown shape, 0.1 m
Radar Cross Section
Small (<0.1 m²)

Expand to show TLE details & history
Last TLE update: 16 hours ago

TLE from 16 hours ago
0 DELTA 1 DEB
1 10752U 76077AZ  26118.63245091  .00005461  00000-0  18093-1 0  9998
2 10752 101.7437  18.9706 0330865  89.4467 339.3199 12.84009800296987
Epoch: 2026-04-28T15:10Z
TLE epoch observation values (Epoch: 2026-04-28T15:10:43.758Z)
Latitude
64.74042°
Longitude
-91.31325°
Altitude
1,098.987 km
Speed
7.421 km/s
True Right ascension
23h 31m 53s
True Declination
64° 36' 49"
Sunlit
Object was in daylight at epoch
Visualization orbit readout
Latitude
Unknown
Longitude
Unknown
Altitude
Unknown
Speed
Unknown
Apparent Right ascension
Unknown
Apparent Declination
Unknown
Sunlit
N/A
Visualization observer readout
Local Sidereal Time
14:42:05
Azimuth
Unknown
Elevation
Unknown
Doppler factor
Unknown
Orbital elements
Apogee altitude
1,577.688 km
Perigee altitude
1,068.088 km
Semi-major axis
7,701.025 km
Eccentricity
0.03309
Inclination
101.7437°
RAAN
18.9706°
Arg. of periapsis
89.4467°
True anomaly
337.92729°
Mean anomaly
339.3199°
Eccentric anomaly
338.62909°
Mean motion
3.21159 °/min
Orbital period
112.09 mins
BSTAR
0.018093
Loading maneuver chart data...
Computing Atmospheric mass density...
Loading historical data...
Loading historical data...
Loading historical data...
Loading historical data...
Loading historical data...
Loading historical data...
Loading historical data...

Documentation

Showing up to 5 results
|